Weather in Spas

Russia / Kostroma Oblast     59°09′43″N   46°43′18″E
temp.,
°C
wind,
m/s
gust,
m/s
humid.,
%
clouds,
%
prec.,
mm/h
press.,
hPa
HPBL,
m
8 march, mon
mon800:00−10ese41094100 0.8 994581
03:00−11e4995100 1.2 993449
06:00−12ene4895100 0.6 992387
09:00−12ne4794100 1.1 993414
12:00−10ne3693100 0.4 995513
15:00−9nne4693100 0.8 997617
18:00−12n3895100 0.3 1000445
21:00−13nne4994100 0.5 1003495
9 march, tue
tue900:00−16n399592 0.1 1005295
03:00−18n389695 0.1 1008316
06:00−22n3797100 0.0 1010251
09:00−22n379687 0.0 1012267
12:00−17n469376 0.0 1014464
15:00−17n479188 0.1 1015595
18:00−21n3995100 0.0 1017284
21:00−25n3109791 0.1 1020255
10 march, wed
wed1000:00−28n36981 0.0 1021110
03:00−30n35990 0.0 102290
06:00−31n23990 0.0 102359
09:00−25n35960 0.0 1023236
12:00−18nnw35910 0.0 1023458
15:00−16nnw358713 0.0 1023667
18:00−20nw2497100 0.0 102385
21:00−22nw369881 0.0 1024124
11 march, thu
thu1100:00−23wnw389734 0.0 1023169
03:00−18nw4109565 0.0 1023310
06:00−16nw41193100 0.0 1023376
09:00−13nw4108397 0.0 1024420
12:00−9nw5117863 0.0 1024652
15:00−8nw5107744 0.0 1024825
18:00−12wnw3118416 0.0 1024303
21:00−14wnw312908 0.0 1025279
12 march, fri
fri1200:00−15w310920 0.0 1025264
03:00−16w310953 0.0 1025240
06:00−16wsw3109382 0.0 1025277
09:00−13wsw498791 0.0 1025408
12:00−10wsw51083100 0.0 1025527
15:00−8wsw51087100 0.0 1024563
18:00−10wsw31089100 0.0 1024411
21:00−13sw3119283 0.0 1026333